Weather History for Liberal, KS

Change the Weather History Date:

Tuesday, May 21, 2013

  Actual Average Record
Temperature  
Mean Temperature 64 °F -  
Max Temperature 77 °F 79 °F 99 °F (1948)
Min Temperature 51 °F 53 °F 39 °F (1945)
Degree Days  
Heating Degree Days 1    
Growing Degree Days 14 (Base 50)    
Moisture  
Dew Point 37 °F    
Average Humidity 39    
Maximum Humidity 62    
Minimum Humidity 21    
Precipitation  
Precipitation 0.00 in - - ()
Sea Level Pressure  
Sea Level Pressure 29.92 in    
Wind  
Wind Speed 15 mph (NNW)    
Max Wind Speed 32 mph    
Max Gust Speed 41 mph    
Visibility 10 miles    
Events      
Averages and records for this station are not official NWS values.
T = Trace of Precipitation, MM = Missing Value Source: NWS Daily Summary

Daily Weather History Graph

Daily Weather History Graph

Search for Another Location

Airport:

Trip Planner

Search our weather history database for the weather conditions in past years. The results will help you decide how hot, cold, wet, or windy it might be!

Date:

Astronomy

May. 21, 2013 Rise Set
Actual Time 6:31 AM CDT 8:50 PM CDT
Civil Twilight 6:01 AM CDT 9:19 PM CDT
Nautical Twilight 5:25 AM CDT 9:56 PM CDT
Astronomical Twilight 4:45 AM CDT 10:36 PM CDT
Moon 5:10 PM CDT (5/21) 3:54 AM CDT (5/21)
Length of Visible Light 15h 18m
Length of Day
14h 19m
Waxing Gibbous, 84% of the Moon is Illuminated
May 21
Waxing Gibbous
May 24
Full
May 31
Last Quarter
Jun 8
New
Jun 16
First Quarter

Hourly Weather History & Observations

Time (CDT) Temp. Dew Point Humidity Pressure Visibility Wind Dir Wind Speed Gust Speed Precip Events Conditions
12:15 AM 57.2 °F 42.8 °F 59% 29.93 in 10.0 mi NNW 16.1 mph - N/A   Clear
12:35 AM 57.2 °F 41.0 °F 55% 29.94 in 10.0 mi NNW 17.3 mph - N/A   Clear
12:55 AM 55.4 °F 39.2 °F 54% 29.95 in 10.0 mi North 15.0 mph - N/A   Clear
1:15 AM 55.4 °F 39.2 °F 54% 29.96 in 10.0 mi North 12.7 mph - N/A   Clear
1:35 AM 53.6 °F 39.2 °F 58% 29.94 in 10.0 mi North 12.7 mph - N/A   Clear
1:55 AM 53.6 °F 39.2 °F 58% 29.94 in 10.0 mi North 11.5 mph - N/A   Clear
2:15 AM 53.6 °F 39.2 °F 58% 29.94 in 10.0 mi North 10.4 mph - N/A   Clear
2:35 AM 51.8 °F 39.2 °F 62% 29.95 in 10.0 mi North 6.9 mph - N/A   Clear
2:55 AM 51.8 °F 39.2 °F 62% 29.95 in 10.0 mi NNW 6.9 mph - N/A   Clear
3:15 AM 51.8 °F 39.2 °F 62% 29.96 in 10.0 mi NW 8.1 mph - N/A   Clear
3:35 AM 51.8 °F 39.2 °F 62% 29.96 in 10.0 mi NW 8.1 mph - N/A   Clear
3:55 AM 53.6 °F 39.2 °F 58% 29.97 in 10.0 mi NW 10.4 mph - N/A   Clear
4:15 AM 53.6 °F 39.2 °F 58% 29.97 in 10.0 mi NNW 11.5 mph - N/A   Clear
4:35 AM 53.6 °F 39.2 °F 58% 29.97 in 10.0 mi NNW 10.4 mph - N/A   Scattered Clouds
4:55 AM 53.6 °F 39.2 °F 58% 29.97 in 10.0 mi NNW 11.5 mph - N/A   Partly Cloudy
5:15 AM 53.6 °F 39.2 °F 58% 29.97 in 10.0 mi NNW 13.8 mph - N/A   Clear
5:35 AM 53.6 °F 39.2 °F 58% 29.97 in 10.0 mi NNW 12.7 mph - N/A   Partly Cloudy
5:55 AM 53.6 °F 37.4 °F 54% 29.97 in 10.0 mi NW 11.5 mph - N/A   Clear
6:15 AM 53.6 °F 39.2 °F 58% 29.98 in 10.0 mi NNW 11.5 mph - N/A   Clear
6:35 AM 53.6 °F 37.4 °F 54% 29.98 in 10.0 mi NNW 12.7 mph - N/A   Clear
6:55 AM 53.6 °F 37.4 °F 54% 29.97 in 10.0 mi NNW 19.6 mph - N/A   Clear
7:15 AM 53.6 °F 37.4 °F 54% 29.99 in 10.0 mi NW 16.1 mph - N/A   Clear
7:35 AM 55.4 °F 39.2 °F 54% 29.97 in 10.0 mi NNW 24.2 mph 31.1 mph N/A   Clear
7:55 AM 57.2 °F 37.4 °F 48% 29.95 in 10.0 mi NNW 26.5 mph 33.4 mph N/A   Clear
8:15 AM 57.2 °F 37.4 °F 48% 29.97 in 10.0 mi NNW 24.2 mph 34.5 mph N/A   Clear
8:35 AM 59.0 °F 39.2 °F 48% 29.97 in 10.0 mi NNW 27.6 mph 35.7 mph N/A   Clear
8:55 AM 60.8 °F 39.2 °F 45% 29.98 in 10.0 mi NNW 28.8 mph 34.5 mph N/A   Clear
9:15 AM 59.0 °F 37.4 °F 45% 29.97 in 10.0 mi NNW 26.5 mph 39.1 mph N/A   Clear
9:35 AM 60.8 °F 39.2 °F 45% 29.97 in 10.0 mi NNW 24.2 mph 34.5 mph N/A   Clear
9:55 AM 62.6 °F 39.2 °F 42% 29.97 in 10.0 mi NNW 29.9 mph 35.7 mph N/A   Clear
10:15 AM 62.6 °F 39.2 °F 42% 29.96 in 10.0 mi NNW 28.8 mph 38.0 mph N/A   Clear
10:35 AM 64.4 °F 37.4 °F 37% 29.95 in 10.0 mi NNW 27.6 mph 38.0 mph N/A   Partly Cloudy
10:55 AM 66.2 °F 39.2 °F 37% 29.93 in 10.0 mi NNW 32.2 mph 38.0 mph N/A   Partly Cloudy
11:15 AM 66.2 °F 39.2 °F 37% 29.92 in 10.0 mi NNW 32.2 mph 41.4 mph N/A   Clear
11:35 AM 68.0 °F 39.2 °F 35% 29.91 in 10.0 mi NNW 31.1 mph 38.0 mph N/A   Clear
11:55 AM 69.8 °F 37.4 °F 31% 29.92 in 10.0 mi NNW 29.9 mph 39.1 mph N/A   Clear
12:15 PM 69.8 °F 37.4 °F 31% 29.93 in 10.0 mi NNW 25.3 mph 35.7 mph N/A   Clear
12:35 PM 71.6 °F 39.2 °F 31% 29.94 in 10.0 mi NNW 17.3 mph 29.9 mph N/A   Clear
12:55 PM 71.6 °F 39.2 °F 31% 29.94 in 10.0 mi NNW 18.4 mph 31.1 mph N/A   Clear
1:15 PM 71.6 °F 37.4 °F 29% 29.93 in 10.0 mi NW 16.1 mph 24.2 mph N/A   Clear
1:35 PM 73.4 °F 39.2 °F 29% 29.91 in 10.0 mi North 21.9 mph 27.6 mph N/A   Partly Cloudy
1:55 PM 73.4 °F 37.4 °F 27% 29.90 in 10.0 mi North 13.8 mph 25.3 mph N/A   Clear
2:15 PM 75.2 °F 37.4 °F 25% 29.90 in 10.0 mi NNW 10.4 mph 26.5 mph N/A   Scattered Clouds
2:35 PM 73.4 °F 37.4 °F 27% 29.90 in 10.0 mi NNW 16.1 mph 25.3 mph N/A   Mostly Cloudy
2:55 PM 75.2 °F 37.4 °F 25% 29.89 in 10.0 mi North 16.1 mph 25.3 mph N/A   Scattered Clouds
3:15 PM 75.2 °F 35.6 °F 24% 29.88 in 10.0 mi North 13.8 mph 23.0 mph N/A   Partly Cloudy
3:35 PM 75.2 °F 37.4 °F 25% 29.87 in 10.0 mi NNW 15.0 mph 21.9 mph N/A   Scattered Clouds
3:55 PM 77.0 °F 37.4 °F 24% 29.87 in 10.0 mi NNW 15.0 mph 21.9 mph N/A   Mostly Cloudy
4:15 PM 75.2 °F 35.6 °F 24% 29.87 in 10.0 mi North 12.7 mph 21.9 mph N/A   Mostly Cloudy
4:35 PM 75.2 °F 35.6 °F 24% 29.87 in 10.0 mi NNW 11.5 mph 16.1 mph N/A   Mostly Cloudy
4:55 PM 75.2 °F 35.6 °F 24% 29.86 in 10.0 mi NNW 12.7 mph 21.9 mph N/A   Mostly Cloudy
5:15 PM 75.2 °F 35.6 °F 24% 29.85 in 10.0 mi NNW 10.4 mph 18.4 mph N/A   Mostly Cloudy
5:35 PM 77.0 °F 35.6 °F 22% 29.85 in 10.0 mi North 15.0 mph - N/A   Mostly Cloudy
5:55 PM 75.2 °F 33.8 °F 22% 29.84 in 10.0 mi NNW 11.5 mph 20.7 mph N/A   Partly Cloudy
6:15 PM 77.0 °F 35.6 °F 22% 29.84 in 10.0 mi NNW 13.8 mph 18.4 mph N/A   Clear
6:35 PM 77.0 °F 33.8 °F 21% 29.83 in 10.0 mi NNW 16.1 mph 23.0 mph N/A   Clear
6:55 PM 77.0 °F 33.8 °F 21% 29.83 in 10.0 mi NNW 19.6 mph - N/A   Clear
7:15 PM 75.2 °F 33.8 °F 22% 29.84 in 10.0 mi NW 16.1 mph 24.2 mph N/A   Clear
7:35 PM 75.2 °F 33.8 °F 22% 29.84 in 10.0 mi NNW 10.4 mph - N/A   Clear
7:55 PM 73.4 °F 33.8 °F 23% 29.84 in 10.0 mi North 12.7 mph - N/A   Clear
8:15 PM 71.6 °F 33.8 °F 25% 29.85 in 10.0 mi North 5.8 mph - N/A   Clear
8:35 PM 69.8 °F 32.0 °F 25% 29.86 in 10.0 mi Calm Calm - N/A   Clear
8:55 PM 69.8 °F 32.0 °F 25% 29.87 in 10.0 mi Calm Calm - N/A   Clear
9:15 PM 66.2 °F 30.2 °F 26% 29.88 in 10.0 mi Calm Calm - N/A   Clear
9:35 PM 64.4 °F 30.2 °F 28% 29.88 in 10.0 mi Calm Calm - N/A   Clear
9:55 PM 60.8 °F 30.2 °F 31% 29.89 in 10.0 mi NNW 3.5 mph - N/A   Clear
10:15 PM 60.8 °F 33.8 °F 36% 29.89 in 10.0 mi North 3.5 mph - N/A   Clear
10:35 PM 59.0 °F 33.8 °F 39% 29.90 in 10.0 mi Calm Calm - N/A   Clear
10:55 PM 57.2 °F 33.8 °F 41% 29.90 in 10.0 mi NNW 3.5 mph - N/A   Clear
11:15 PM 59.0 °F 33.8 °F 39% 29.91 in 10.0 mi NE 6.9 mph - N/A   Clear
11:35 PM 62.6 °F 33.8 °F 34% 29.92 in 10.0 mi NE 9.2 mph - N/A   Clear
11:55 PM 62.6 °F 30.2 °F 30% 29.92 in 10.0 mi NE 9.2 mph - N/A   Clear